Location: The Saddle
(36.8333°N, 80.3417°W)
Time: 03:56:43
(UTC-04:00)

Tiros 1 - Pass Details

Date: 23 January 2022
Orbit: 630 x 663 km, 48.4° (Epoch: 29 May)

Event Time Altitude Azimuth Distance (km) Brightness Sun altitude
Exits shadow 04:39:05 24° 66° (ENE) 1,350 9.3 -34.0°
Drops below altitude 10° 04:41:22 10° 87° (E) 2,036 10.5 -33.6°
Sets 04:43:52 0° 97° (E) 2,938 11.6 -33.1°
